Content
SEND FEEDBACK

Daily
Averages
Monthly
Summary
United States of America

ITHACA, NEW YORK


Home > North America > United States > New York
Elevation: 1094 feet     Latitude: 42 29N     Longitude: 076 28W

WEATHER
 
SELECT A DAY
Number of Records: 163,699;   Date Range: 1/1/95 - 12/17/14
 
SHARE

PRINT THIS DATA

[ ← Previous Day ]
WEATHER ALMANAC - MAY 6, 2013
[ Next Day → ]
[ °C ]   °F
Weather ElementAverageHighLow
Temperature59.8 °F73.9 °F (3:56 pm)42.8 °F (6:12 am)
Dewpoint36.1 °F45.9 °F (10:56 pm)26.1 °F (12:56 pm)
Humidity45.2 %76 % (5:56 am)20 % (12:56 pm)
Barometer30.15 in30.21 in (7:56 am)30.07 in (6:56 pm)
Wind Speed5.4 mph10.4 mph (6:56 pm)
Weather ElementAverage
Visibility10 mi
Wind DirectionESE (109.1 °)

Weather ElementTotal
Precipitation---
Heating Degree Days6.7 (Base 65)
Growing Degree Days8.4 (Base 50)
Averaged from 23 records on May 6, 2013
WEATHER CONDITIONS BREAKOUT
WIND DIRECTION BREAKOUT
WEATHER BY HOUR - MAY 6, 2013
[ °C ]   °F
Local TimeTemperatureDewpointHumidityBarometerVisibilityWind DirectionWind SpeedGust SpeedPrecipitationEventsConditions
1:56 AM52.9 °F31.1 °F43 %30.17 in10.0 miCalmClear
2:56 AM50.0 °F32.9 °F52 %30.17 in10.0 miCalmClear
3:56 AM45.9 °F36.0 °F68 %30.18 in10.0 miEast (100°)4.6 mphClear
4:56 AM45.9 °F34.9 °F66 %30.18 in10.0 miESE (120°)5.8 mphClear
5:56 AM43.0 °F36.0 °F76 %30.19 in10.0 miESE (110°)4.6 mphClear
6:12 AM42.8 °F35.6 °F76 %30.19 in10.0 miEast (90°)4.6 mphClear
6:56 AM46.9 °F34.9 °F63 %30.20 in10.0 miESE (110°)4.6 mphClear
7:56 AM52.0 °F36.9 °F56 %30.21 in10.0 miSE (130°)5.8 mphClear
8:56 AM55.9 °F38.8 °F53 %30.21 in10.0 miSSE (160°)6.9 mphClear
9:56 AM59.0 °F37.9 °F46 %30.21 in10.0 miVariable5.8 mphClear
10:56 AM61.9 °F34.0 °F35 %30.20 in10.0 miEast (100°)3.5 mphClear
11:56 AM65.8 °F31.1 °F27 %30.18 in10.0 miVariable4.6 mphClear
12:56 PM68.9 °F26.1 °F20 %30.16 in10.0 miSouth (180°)6.9 mphClear
1:56 PM70.9 °F31.1 °F23 %30.14 in10.0 miVariable4.6 mphClear
2:56 PM72.0 °F30.0 °F21 %30.12 in10.0 miESE (120°)6.9 mphClear
3:56 PM73.9 °F34.9 °F24 %30.09 in10.0 miSouth (170°)8.1 mphClear
4:56 PM73.9 °F34.9 °F24 %30.08 in10.0 miSouth (180°)8.1 mphPartly Cloudy
5:56 PM73.9 °F37.9 °F27 %30.08 in10.0 miSE (140°)6.9 mphPartly Cloudy
6:56 PM72.0 °F38.8 °F30 %30.07 in10.0 miSSE (160°)10.4 mphPartly Cloudy
7:56 PM66.9 °F41.9 °F40 %30.08 in10.0 miSSE (160°)5.8 mphPartly Cloudy
8:56 PM61.0 °F43.9 °F53 %30.09 in10.0 miSE (130°)4.6 mphClear
9:56 PM61.0 °F45.0 °F56 %30.11 in10.0 miSouth (170°)5.8 mphClear
10:56 PM59.9 °F45.9 °F60 %30.12 in10.0 miSouth (180°)5.8 mphClear
Hourly data recorded from KITH, located miles away from Ithaca, New York







STORIES FROM OUR PARTNERS